CW6770 Weather Reports


time (UTC)temp
F
wind
direction
speed
knots
gust
knots
rain 1hr
in
rain 24hr
in
rain mn
in
humidity
%
barometer
mb
20260504231543 52 0 0.0 0.0 0.00 0.00 0.00 74 1008.1
20260504231027 53 0 0.0 0.0 0.00 0.00 0.00 73 1008.1
20260504230527 54 0 0.0 0.0 0.00 0.00 0.00 73 1008.1
20260504230040 54 0 0.0 0.0 0.00 0.00 0.00 72 1008.1
20260504225527 55 0 0.0 0.0 0.00 0.00 0.00 71 1008.0
20260504225027 55 0 0.0 0.0 0.00 0.00 0.00 71 1008.0
20260504224540 56 0 0.0 0.0 0.00 0.00 0.00 70 1007.9
20260504224027 57 0 0.0 2.6 0.00 0.00 0.00 68 1007.8
20260504223527 57 0 0.0 2.6 0.00 0.00 0.00 67 1007.7
20260504223054 58 0 0.0 0.9 0.00 0.00 0.00 68 1007.7
20260504222756 59 0 0.0 5.2 0.00 0.00 0.00 66 1007.8
20260504222025 59 0 0.0 5.2 0.00 0.00 0.00 65 1007.9
20260504221542 59 0 0.0 5.2 0.00 0.00 0.00 64 1007.8
20260504221027 59 190 0.0 6.1 0.00 0.00 0.00 66 1008.0
20260504220528 59 0 0.0 6.1 0.00 0.00 0.00 67 1007.7
20260504220041 59 0 0.0 2.6 0.00 0.00 0.00 67 1007.6
20260504215528 59 0 0.0 2.6 0.00 0.00 0.00 65 1007.4
20260504215028 60 0 0.0 2.6 0.00 0.00 0.00 63 1007.2
20260504214538 61 0 0.0 1.7 0.00 0.00 0.00 63 1007.2
20260504214026 61 0 0.0 7.0 0.00 0.00 0.00 63 1007.3
20260504213530 61 0 1.7 7.0 0.00 0.00 0.00 63 1007.2
20260504213049 61 218 0.0 2.6 0.00 0.00 0.00 65 1007.3
20260504212528 60 218 0.0 6.1 0.00 0.00 0.00 64 1007.3
20260504212028 61 0 0.9 6.1 0.00 0.00 0.00 63 1007.3
20260504211537 61 0 0.9 6.1 0.00 0.00 0.00 62 1007.4
20260504211025 62 250 0.9 5.2 0.00 0.00 0.00 63 1007.4
20260504210525 61 0 0.9 6.1 0.00 0.00 0.00 63 1007.2
20260504210043 61 0 0.0 6.1 0.00 0.00 0.00 63 1007.2
20260504205528 61 161 0.0 7.0 0.00 0.00 0.00 63 1007.2
20260504205030 61 0 1.7 7.0 0.00 0.00 0.00 63 1007.3
20260504204545 62 210 0.0 6.1 0.00 0.00 0.00 62 1007.4
20260504204033 62 247 0.9 6.1 0.00 0.00 0.00 61 1007.3
20260504203531 62 182 1.7 6.1 0.00 0.00 0.00 63 1007.0
20260504203053 62 232 0.0 3.5 0.00 0.00 0.00 63 1007.2
20260504202530 62 190 0.0 8.7 0.00 0.00 0.00 65 1007.2
20260504202029 61 246 2.6 8.7 0.00 0.00 0.00 63 1007.2
20260504201538 61 189 0.9 4.3 0.00 0.00 0.00 64 1007.2
20260504201032 61 0 0.0 8.7 0.00 0.00 0.00 66 1007.2
20260504200527 61 288 1.7 8.7 0.00 0.00 0.00 66 1007.2
20260504200038 60 146 1.7 6.1 0.00 0.00 0.00 67 1007.2
20260504195529 60 0 0.9 4.3 0.00 0.01 0.00 66 1007.2
20260504195028 60 0 0.0 6.1 0.00 0.01 0.00 71 1007.4
20260504194543 59 189 0.0 6.1 0.00 0.01 0.00 71 1007.4
20260504194029 58 190 0.0 5.2 0.00 0.01 0.00 71 1007.3
20260504193529 58 228 0.9 5.2 0.00 0.01 0.00 72 1007.3
20260504193040 57 260 0.9 6.1 0.00 0.01 0.00 72 1007.4
20260504192528 57 232 1.7 6.1 0.00 0.01 0.00 73 1007.5
20260504192032 56 257 0.0 7.0 0.00 0.01 0.00 75 1007.6
20260504191538 55 213 0.9 7.0 0.00 0.01 0.00 75 1007.7
20260504191028 55 227 0.9 7.0 0.00 0.01 0.00 75 1007.8
20260504190531 55 0 0.0 7.0 0.00 0.01 0.00 77 1007.7
20260504190040 54 246 0.9 7.0 0.00 0.01 0.00 77 1007.8
20260504185530 53 170 0.9 7.0 0.00 0.03 0.00 76 1007.9
20260504185030 53 211 0.0 3.5 0.00 0.03 0.00 77 1008.1
20260504184539 53 227 0.9 6.1 0.00 0.03 0.00 76 1008.2
20260504184030 53 246 1.7 6.1 0.00 0.03 0.00 76 1008.3
20260504183528 53 211 0.9 3.5 0.00 0.03 0.00 75 1008.4
20260504183037 53 221 0.9 3.5 0.00 0.03 0.00 73 1008.3
20260504182530 53 221 0.0 3.5 0.00 0.03 0.00 72 1008.5
20260504182051 54 221 0.0 3.5 0.00 0.03 0.00 71 1008.4
20260504181545 54 0 0.0 7.8 0.00 0.03 0.00 69 1008.4
20260504181029 54 0 0.9 7.8 0.00 0.03 0.00 69 1008.3
20260504180531 55 0 2.6 7.8 0.00 0.03 0.00 67 1008.1
20260504180041 55 252 0.0 6.1 0.00 0.03 0.00 68 1008.1
20260504175527 54 249 0.9 6.1 0.00 0.09 0.00 68 1007.9
20260504175029 54 234 1.7 6.1 0.00 0.09 0.00 69 1008.0
20260504174541 54 241 1.7 6.1 0.00 0.09 0.00 69 1007.9
20260504174031 54 257 0.0 6.1 0.00 0.09 0.00 71 1007.8
20260504173527 53 256 0.9 6.1 0.00 0.09 0.00 72 1007.8
20260504173038 52 236 0.9 6.1 0.00 0.09 0.00 73 1007.8
20260504172527 52 239 0.0 6.1 0.00 0.09 0.00 74 1007.8
20260504172029 51 211 0.9 6.1 0.00 0.09 0.00 74 1007.6
20260504171545 51 0 0.0 9.6 0.00 0.09 0.00 74 1007.5
20260504171028 52 0 0.9 9.6 0.00 0.09 0.00 72 1007.6
20260504170527 53 197 0.9 9.6 0.00 0.09 0.00 69 1007.7
20260504151059 56 215 0.9 6.1 0.00 0.21 0.00 56 1009.1
20260504151027 56 215 0.9 6.1 0.00 0.21 0.00 56 1009.1
20260504150528 55 289 0.0 6.1 0.00 0.21 0.00 56 1009.0
20260504141027 55 238 0.9 6.1 0.00 0.28 0.00 59 1009.9
20260504140528 55 179 0.9 4.3 0.00 0.28 0.00 55 1010.0
20260504130528 51 237 1.7 6.1 0.00 0.37 0.00 62 1010.2
20260504110525 43 0 0.0 2.6 0.00 0.50 0.00 77 1009.7
20260504100525 37 0 0.0 0.0 0.00 0.58 0.00 83 1009.3
20260504081538 39 274 2.6 8.7 0.00 0.66 0.00 77 1008.4
20260504081027 39 219 0.9 6.1 0.00 0.66 0.00 77 1008.5
20260504080528 39 257 0.9 7.0 0.00 0.66 0.00 77 1008.6
20260504050525 38 0 0.9 3.5 0.00 0.76 0.00 78 1007.1
20260504045525 38 0 0.9 3.5 0.00 0.76 0.00 78 1007.1
20260504045025 38 0 0.9 3.5 0.00 0.76 0.00 77 1007.2
20260504044544 39 0 0.9 5.2 0.00 0.76 0.00 77 1007.1
20260504044025 39 0 0.0 7.0 0.00 0.76 0.00 77 1007.3
20260504043526 39 272 0.9 7.0 0.00 0.76 0.00 77 1007.1
20260504043037 39 273 1.7 7.0 0.00 0.76 0.00 77 1007.1
20260504042528 39 238 0.0 3.5 0.00 0.76 0.00 77 1007.0
20260504042025 39 0 0.0 3.5 0.00 0.76 0.00 77 1006.9
20260504041537 39 238 0.0 3.5 0.00 0.76 0.00 77 1006.8
20260504041027 39 0 0.9 3.5 0.00 0.76 0.00 77 1006.8
20260504040526 39 238 0.9 3.5 0.00 0.76 0.00 77 1006.8
20260504040044 39 0 0.0 2.6 0.00 0.76 0.00 77 1006.7
20260504035526 39 0 0.0 7.0 0.00 0.76 0.76 77 1006.8
20260504035027 39 236 0.9 7.0 0.00 0.76 0.76 76 1006.7
20260504034600 39 275 0.0 3.5 0.00 0.76 0.76 76 1006.7
20260504034025 39 0 0.9 3.5 0.00 0.76 0.76 76 1006.7
20260504033526 40 275 0.0 7.0 0.00 0.76 0.76 76 1006.6
20260504033038 40 0 0.9 7.0 0.00 0.76 0.76 75 1006.6
20260504032528 40 278 0.9 6.1 0.00 0.76 0.76 76 1006.5
20260504032028 40 296 1.7 6.1 0.00 0.76 0.76 76 1006.5
20260504031537 40 247 0.9 6.1 0.00 0.76 0.76 76 1006.5
20260504031027 40 259 1.7 6.1 0.00 0.76 0.76 77 1006.5
20260504030558 40 283 0.9 5.2 0.00 0.76 0.76 77 1006.5
20260504030046 40 283 0.9 6.1 0.00 0.76 0.76 76 1006.4
20260504025526 40 275 1.7 6.1 0.00 0.76 0.76 77 1006.4
20260504025026 40 268 0.9 6.1 0.00 0.76 0.76 77 1006.2
20260504024541 40 246 0.9 6.1 0.00 0.76 0.76 78 1006.1
20260504024025 40 239 1.7 5.2 0.00 0.76 0.76 78 1006.3
20260504023525 40 240 0.9 5.2 0.00 0.76 0.76 78 1006.1
20260504023041 40 238 0.9 7.0 0.00 0.76 0.76 79 1006.0
20260504022525 40 0 0.9 7.0 0.00 0.76 0.76 79 1006.0
20260504022025 40 263 0.9 7.0 0.00 0.76 0.76 80 1006.0
20260504021539 40 269 1.7 7.0 0.00 0.76 0.76 81 1005.9
20260504021025 40 230 0.0 2.6 0.00 0.76 0.76 81 1005.9
20260504020525 40 0 0.9 4.3 0.00 0.76 0.76 81 1006.1
20260504020038 41 230 0.0 4.3 0.00 0.76 0.76 81 1006.0
20260504015526 41 230 0.9 6.1 0.00 0.76 0.76 81 1006.1
20260504015026 41 230 0.9 6.1 0.00 0.76 0.76 81 1005.8
20260504014539 41 230 0.9 6.1 0.00 0.76 0.76 82 1005.9
20260504014025 42 0 0.9 5.2 0.00 0.76 0.76 83 1005.8
20260504013527 42 0 1.7 6.1 0.00 0.76 0.76 84 1005.7
20260504013047 41 247 0.9 6.1 0.00 0.76 0.76 85 1005.7
20260504012530 41 250 0.0 7.0 0.00 0.76 0.76 86 1005.5
20260504012025 41 269 0.9 7.0 0.00 0.76 0.76 87 1005.6
20260504011536 41 286 0.0 4.3 0.00 0.76 0.76 88 1005.4
20260504011024 42 0 0.9 4.3 0.00 0.76 0.76 88 1005.3
20260504010526 42 0 0.0 0.0 0.00 0.76 0.76 88 1005.4
20260504010040 42 0 0.0 0.0 0.00 0.76 0.76 87 1005.3
20260504005526 42 0 0.0 0.0 0.00 0.76 0.76 87 1005.2
20260504005026 42 0 0.0 0.0 0.00 0.76 0.76 87 1005.3
20260504004539 42 0 0.0 0.0 0.00 0.76 0.76 86 1005.1
20260504004026 43 0 0.0 0.0 0.00 0.76 0.76 86 1004.9
20260504003525 43 0 0.0 0.0 0.00 0.76 0.76 86 1004.8
20260504003038 43 0 0.0 0.0 0.00 0.76 0.76 86 1004.7
20260504002525 44 0 0.0 0.0 0.00 0.76 0.76 86 1004.7
20260504002025 44 0 0.0 0.0 0.00 0.76 0.76 86 1004.6
20260504001535 44 0 0.0 3.5 0.00 0.76 0.76 85 1004.5
20260504001025 44 0 0.0 3.5 0.00 0.76 0.76 85 1004.5
20260504000525 44 302 0.0 2.6 0.00 0.76 0.76 85 1004.4
20260504000037 44 301 0.0 3.5 0.00 0.76 0.76 85 1004.3
20260503235526 44 0 0.0 3.5 0.00 0.76 0.76 85 1004.2
20260503235026 44 0 0.9 6.1 0.00 0.76 0.76 85 1004.2
20260503234538 44 302 0.9 6.1 0.00 0.76 0.76 84 1004.2
20260503234025 45 0 0.0 2.6 0.00 0.76 0.76 84 1004.2
20260503233712 45 0 0.0 2.6 0.00 0.76 0.76 84 1003.9
20260503233040 45 0 0.0 6.1 0.00 0.76 0.76 83 1004.0
20260503232530 45 0 0.0 9.6 0.00 0.76 0.76 83 1003.8
20260503232030 45 0 0.9 9.6 0.00 0.76 0.76 83 1003.8